Location: *
(49.3500°N, 12.6000°E)
Time: 20:12:42
(UTC+00:00)

FALCON 9 DEB - Pass Details

Date: 18 October 2019
Orbit: 430 x 445 km, 53.0° (Epoch: 20 November)

Event Time Altitude Azimuth Distance (km) Brightness Sun altitude
Rises 17:12:34 0° 289° (WNW) 2,417 8.4 -10.2°
Reaches altitude 10° 17:14:43 10° 294° (WNW) 1,550 7.0 -10.6°
Maximum altitude 17:18:08 53° 12° (NNE) 550 3.5 -11.1°
Enters shadow 17:20:27 19° 85° (E) 1,131 4.6 -11.5°
